World > North America > United States > Virginia > Ladysmith  

Ladysmith, VA Hourly Weather Updates

Feedback E-mail the Weather

Quick Clicks

Ladysmith, VA Weather Maps

°F °C°F °C
Ladysmith Weather Map
UTC Time: 5/18/2024, 16:04
Your Time:

Ladysmith, VA Regional Weather

Expires:202405181600;;429148
ASUS41 KAKQ 181511
RWRAKQ

REGIONAL WEATHER ROUNDUP
NATIONAL WEATHER SERVICE WAKEFIELD VA
1100 AM EDT SAT MAY 18 2024

Note: "fair" indicates few or no clouds below 12,000 feet with no
significant weather and/or obstructions to visibility. * = Denotes
station may not report precipitation (e.g., rain,snow,etc.),
thunder or fog.


VAZ048-049-060>072-079>083-181600-
CENTRAL AND SOUTH CENTRAL VIRGINIA
  
CITY           SKY/WX    TMP DP  RH WIND       PRES   REMARKS
RICHMOND       LGT RAIN  62  59  90 E9        29.94F FOG              
CHESTERFIELD*  LGT RAIN  60 N/A N/A E7        29.94S                  
PETERSBURG*    DRIZZLE   60  59  96 E7        29.94R                  
HANOVER        CLOUDY    61  60  97 VRB5      29.96S                  
TAPPAHANNOCK*  DRIZZLE   60  60 100 E9G17     29.96F                  
QUINTON*       CLOUDY    60  60  99 E8        29.94F                  
CHARLOTTSVILLE CLOUDY    63  58  83 NE5       29.96R                  
GORDONSVILLE*  CLOUDY    61  60  97 NE5       29.95S                  
ORANGE*        CLOUDY    59  59 100 E6        29.98S                  
LOUISA*        CLOUDY    60  59  96 E6        29.97R FOG              
BUMPASS*       CLOUDY    60  59  97 CALM      29.97R                  
FARMVILLE*     DRIZZLE   61  61 100 NE6       29.93R                  
CREWE*         CLOUDY    59  57  91 CALM      29.94R                  
FORT PICKETT*  CLOUDY    60  60 100 E6        29.93R FOG              
CHASE CITY*    CLOUDY    62  62 100 CALM      29.91R                  
CLARKSVILLE*   CLOUDY    64  64 100 E3        29.89S                  
SOUTH HILL*    CLOUDY    64  63  99 CALM      29.96S                  
LAWRENCEVILLE* CLOUDY    63  62  97 E3        29.92S                  
EMPORIA*       CLOUDY    61  61  99 CALM      29.93R FOG              
$$


SKY/WX - Weather  TMP - Temperature  DP - Dew Point  RH - Humidity
WIND - Wind Direction/Speed PRES - Barometric Pressure VSB - Visibility
WCI - Wind Chill Index E13G22 Wind - East Wind 13 mph/Gusts of 22 mph

Trending Headlines

Trending Entertainment Headlines

Ladysmith Radar Loop

Use the map search tool if you want to place a location marker on the radar map...

Ladysmith Quick Facts

National Two Day Weather Forecast


E-mail the Ladysmith Weather Forecast

Voice your opinion or tell us about page issues...